Location: Dreilärchen
(47.9312°N, 8.6113°E)
Time: 20:58:52
(UTC+00:00)

MSX - Pass Details

Date: 26 May 2022
Orbit: 896 x 905 km, 98.9° (Epoch: 02 July)

Event Time Altitude Azimuth Distance (km) Brightness Sun altitude
Rises 02:13:54 0° 13° (NNE) 3,535 8.2 -11.0°
Reaches altitude 10° 02:16:19 10° 13° (NNE) 2,591 7.3 -10.8°
Maximum altitude 02:22:06 80° 287° (WNW) 923 3.9 -10.1°
Drops below altitude 10° 02:27:51 10° 202° (SSW) 2,579 5.6 -9.5°
Enters shadow 02:27:58 - 202° (SSW) 2,628 5.7 -9.4°
